• In Netherlands
  • List of Countries
  • For 7 days
  • Water Temperature
  • Satellite Maps
  • Weather Map
  • Weather Widgets
  • user-avatar
    Login

    Hourly Weather Shumen

    Today, 22 September, Friday

    Time Temperature Precipitation Wind Pressure Humidity
    00:00 +11°C° 0 mm 6 mps 728 mmHg 67%
    01:00 +10°C° 0 mm 6 mps 728 mmHg 69%
    02:00 +10°C° 0 mm 5 mps 729 mmHg 71%
    03:00 +9°C° 0 mm 5 mps 729 mmHg 71%
    04:00 +9°C° 0 mm 5 mps 729 mmHg 71%
    05:00 +9°C° 0 mm 5 mps 729 mmHg 72%
    06:00 +10°C° 0 mm 6 mps 729 mmHg 68%
    07:00 +11°C° 0 mm 6 mps 729 mmHg 63%
    08:00 +11°C° 0 mm 7 mps 729 mmHg 59%
    09:00 +14°C° 0 mm 7 mps 729 mmHg 54%
    10:00 +16°C° 0 mm 7 mps 729 mmHg 48%
    11:00 +17°C° 0 mm 7 mps 730 mmHg 43%
    12:00 +17°C° 0 mm 7 mps 730 mmHg 43%
    13:00 +18°C° 0 mm 7 mps 730 mmHg 42%
    14:00 +18°C° 0 mm 7 mps 729 mmHg 41%
    15:00 +17°C° 0 mm 7 mps 729 mmHg 44%
    16:00 +17°C° 0 mm 7 mps 729 mmHg 47%
    17:00 +16°C° 0 mm 7 mps 730 mmHg 49%
    18:00 +15°C° 0 mm 6 mps 730 mmHg 53%
    19:00 +14°C° 0 mm 5 mps 730 mmHg 57%
    20:00 +13°C° 0 mm 5 mps 730 mmHg 61%
    21:00 +12°C° 0 mm 5 mps 731 mmHg 64%
    22:00 +12°C° 0 mm 5 mps 731 mmHg 66%
    23:00 +12°C° 0 mm 5 mps 731 mmHg 68%

    Tomorrow, 23 September, Saturday

    Time Temperature Precipitation Wind Pressure Humidity
    00:00 +10°C° 0 mm 5 mps 731 mmHg 70%
    01:00 +10°C° 0 mm 5 mps 731 mmHg 73%
    02:00 +10°C° 0 mm 4 mps 731 mmHg 75%
    03:00 +10°C° 0.1 mm 4 mps 731 mmHg 77%
    04:00 +10°C° 0.1 mm 4 mps 732 mmHg 79%
    05:00 +9°C° 0.1 mm 3 mps 732 mmHg 81%
    06:00 +10°C° 0 mm 4 mps 732 mmHg 77%
    07:00 +11°C° 0 mm 4 mps 732 mmHg 73%
    08:00 +12°C° 0 mm 4 mps 732 mmHg 70%
    09:00 +14°C° 0 mm 5 mps 733 mmHg 61%
    10:00 +16°C° 0 mm 5 mps 733 mmHg 53%
    11:00 +20°C° 0 mm 5 mps 733 mmHg 45%
    12:00 +20°C° 0 mm 5 mps 733 mmHg 42%
    13:00 +21°C° 0 mm 4 mps 733 mmHg 39%
    14:00 +22°C° 0 mm 4 mps 733 mmHg 36%
    15:00 +22°C° 0 mm 4 mps 733 mmHg 36%
    16:00 +21°C° 0 mm 4 mps 733 mmHg 37%
    17:00 +21°C° 0 mm 3 mps 732 mmHg 38%
    18:00 +19°C° 0 mm 3 mps 733 mmHg 42%
    19:00 +17°C° 0 mm 2 mps 733 mmHg 47%
    20:00 +15°C° 0 mm 2 mps 733 mmHg 51%
    21:00 +15°C° 0 mm 2 mps 733 mmHg 52%
    22:00 +14°C° 0 mm 2 mps 733 mmHg 53%
    23:00 +14°C° 0 mm 2 mps 733 mmHg 54%

    Day after tomorrow, 24 September, Sunday

    Time Temperature Precipitation Wind Pressure Humidity
    00:00 +13°C° 0 mm 2 mps 733 mmHg 56%
    01:00 +13°C° 0 mm 2 mps 733 mmHg 57%
    02:00 +13°C° 0 mm 2 mps 733 mmHg 58%
    03:00 +13°C° 0 mm 1 mps 733 mmHg 59%
    04:00 +12°C° 0 mm 1 mps 733 mmHg 61%
    05:00 +12°C° 0 mm 1 mps 733 mmHg 62%
    06:00 +14°C° 0 mm 1 mps 733 mmHg 57%
    07:00 +15°C° 0 mm 1 mps 733 mmHg 52%
    08:00 +18°C° 0 mm 1 mps 734 mmHg 47%
    09:00 +19°C° 0 mm 2 mps 734 mmHg 42%
    10:00 +21°C° 0 mm 2 mps 734 mmHg 37%
    11:00 +24°C° 0 mm 2 mps 734 mmHg 31%
    12:00 +25°C° 0 mm 2 mps 734 mmHg 30%
    13:00 +26°C° 0 mm 2 mps 734 mmHg 29%
    14:00 +27°C° 0 mm 2 mps 734 mmHg 27%
    15:00 +26°C° 0 mm 2 mps 734 mmHg 29%
    16:00 +25°C° 0 mm 2 mps 734 mmHg 30%
    17:00 +25°C° 0 mm 2 mps 734 mmHg 32%
    18:00 +21°C° 0 mm 2 mps 734 mmHg 39%
    19:00 +19°C° 0 mm 2 mps 734 mmHg 45%
    20:00 +17°C° 0 mm 2 mps 734 mmHg 52%
    21:00 +16°C° 0 mm 1 mps 734 mmHg 56%
    22:00 +16°C° 0 mm 1 mps 734 mmHg 60%
    23:00 +15°C° 0 mm 1 mps 734 mmHg 63%

    25 September, Monday

    Time Temperature Precipitation Wind Pressure Humidity
    00:00 +15°C° 0 mm 1 mps 734 mmHg 66%
    01:00 +15°C° 0 mm 1 mps 734 mmHg 69%
    02:00 +15°C° 0 mm 1 mps 734 mmHg 72%
    03:00 +14°C° 0 mm 1 mps 734 mmHg 74%
    04:00 +14°C° 0 mm 1 mps 733 mmHg 77%
    05:00 +14°C° 0 mm 1 mps 733 mmHg 79%
    06:00 +15°C° 0 mm 1 mps 734 mmHg 75%
    07:00 +18°C° 0 mm 1 mps 734 mmHg 71%
    08:00 +18°C° 0 mm 2 mps 734 mmHg 67%
    09:00 +20°C° 0 mm 2 mps 734 mmHg 59%
    10:00 +21°C° 0 mm 3 mps 734 mmHg 51%
    11:00 +23°C° 0 mm 4 mps 735 mmHg 43%
    12:00 +23°C° 0 mm 4 mps 734 mmHg 41%
    13:00 +25°C° 0 mm 4 mps 734 mmHg 39%
    14:00 +25°C° 0 mm 4 mps 734 mmHg 37%
    15:00 +23°C° 0 mm 4 mps 734 mmHg 40%
    16:00 +23°C° 0 mm 4 mps 734 mmHg 43%
    17:00 +22°C° 0 mm 4 mps 733 mmHg 46%
    18:00 +21°C° 0 mm 3 mps 733 mmHg 54%
    19:00 +19°C° 0 mm 3 mps 733 mmHg 63%
    20:00 +17°C° 0 mm 2 mps 733 mmHg 72%
    21:00 +17°C° 0 mm 2 mps 733 mmHg 76%
    22:00 +16°C° 0 mm 1 mps 733 mmHg 81%
    23:00 +15°C° 0 mm 1 mps 733 mmHg 86%

    26 September, Tuesday

    Time Temperature Precipitation Wind Pressure Humidity
    00:00 +15°C° 0 mm 1 mps 733 mmHg 87%
    01:00 +15°C° 0 mm 1 mps 732 mmHg 88%
    02:00 +14°C° 0 mm 1 mps 732 mmHg 89%
    03:00 +14°C° 0 mm 2 mps 732 mmHg 89%
    04:00 +14°C° 0 mm 2 mps 732 mmHg 90%
    05:00 +13°C° 0 mm 2 mps 732 mmHg 90%
    06:00 +14°C° 0 mm 2 mps 732 mmHg 84%
    07:00 +16°C° 0 mm 3 mps 732 mmHg 77%
    08:00 +17°C° 0 mm 3 mps 732 mmHg 71%
    09:00 +19°C° 0 mm 3 mps 732 mmHg 63%
    10:00 +21°C° 0 mm 4 mps 732 mmHg 55%
    11:00 +23°C° 0 mm 4 mps 733 mmHg 47%
    12:00 +23°C° 0.1 mm 5 mps 732 mmHg 47%
    13:00 +23°C° 0.1 mm 5 mps 732 mmHg 47%
    14:00 +23°C° 0.1 mm 5 mps 732 mmHg 47%
    15:00 +22°C° 0.1 mm 5 mps 732 mmHg 50%
    16:00 +21°C° 0.1 mm 5 mps 732 mmHg 54%
    17:00 +21°C° 0.1 mm 5 mps 732 mmHg 57%
    18:00 +19°C° 0 mm 4 mps 733 mmHg 64%
    19:00 +17°C° 0 mm 3 mps 733 mmHg 71%
    20:00 +14°C° 0 mm 3 mps 733 mmHg 77%
    21:00 +15°C° 0 mm 2 mps 733 mmHg 78%
    22:00 +14°C° 0 mm 2 mps 733 mmHg 79%
    23:00 +13°C° 0 mm 2 mps 733 mmHg 80%

    27 September, Wednesday

    Time Temperature Precipitation Wind Pressure Humidity
    00:00 +13°C° 0 mm 2 mps 733 mmHg 79%
    01:00 +12°C° 0 mm 2 mps 733 mmHg 77%
    02:00 +12°C° 0 mm 2 mps 733 mmHg 75%
    03:00 +10°C° 0 mm 2 mps 734 mmHg 74%
    04:00 +10°C° 0 mm 2 mps 734 mmHg 72%
    05:00 +10°C° 0 mm 2 mps 734 mmHg 71%
    06:00 +11°C° 0 mm 3 mps 734 mmHg 66%
    07:00 +12°C° 0 mm 3 mps 734 mmHg 60%
    08:00 +13°C° 0 mm 4 mps 735 mmHg 54%
    09:00 +15°C° 0 mm 4 mps 735 mmHg 50%
    10:00 +16°C° 0 mm 5 mps 735 mmHg 47%
    11:00 +19°C° 0 mm 5 mps 736 mmHg 43%
    12:00 +19°C° 0 mm 6 mps 735 mmHg 43%
    13:00 +19°C° 0 mm 6 mps 735 mmHg 43%
    14:00 +19°C° 0 mm 6 mps 735 mmHg 43%
    15:00 +19°C° 0 mm 6 mps 735 mmHg 45%
    16:00 +17°C° 0 mm 5 mps 735 mmHg 46%
    17:00 +16°C° 0 mm 5 mps 735 mmHg 48%
    18:00 +15°C° 0 mm 4 mps 735 mmHg 51%
    19:00 +14°C° 0 mm 4 mps 735 mmHg 54%
    20:00 +13°C° 0 mm 3 mps 735 mmHg 58%
    21:00 +13°C° 0 mm 3 mps 735 mmHg 60%
    22:00 +13°C° 0 mm 3 mps 735 mmHg 62%
    23:00 +13°C° 0 mm 3 mps 735 mmHg 64%
    Show more